Hamilton, OH

9:05 PM EDT on April 25, 2017 (GMT -0400)
Butler County Regional

Weather History for KHAO - June, 2013

Change the Weather History Date:

Saturday, June 8, 2013

  Actual Average (KLUK) Record (KLUK)
Temperature  
Mean Temperature 64 °F -  
Max Temperature 73 °F 83 °F 96 °F (1999)
Min Temperature 55 °F 61 °F 48 °F (1998)
Degree Days  
Heating Degree Days 1    
Growing Degree Days 14 (Base 50)    
Moisture  
Dew Point 57 °F    
Average Humidity 78    
Maximum Humidity 94    
Minimum Humidity 61    
Precipitation  
Precipitation 0.00 in - - ()
Sea Level Pressure  
Sea Level Pressure 29.98 in    
Wind  
Wind Speed 4 mph (NE)    
Max Wind Speed 9 mph    
Max Gust Speed -    
Visibility 7 miles    
Events      
Averages and records for this station are not official NWS values.
T = Trace of Precipitation, MM = Missing Value Source: NWS Daily Summary

Daily Weather History Graph

Daily Weather History Graph

Search for Another Location

Airport or City:

Trip Planner

Search our weather history database for the weather conditions in past years. The results will help you decide how hot, cold, wet, or windy it might be!

Date:

Astronomy

Jun. 08, 2013 Rise Set
Actual Time 6:11 AM EDT 9:03 PM EDT
Civil Twilight 5:39 AM EDT 9:35 PM EDT
Nautical Twilight 4:58 AM EDT 10:16 PM EDT
Astronomical Twilight 4:12 AM EDT 11:02 PM EDT
Moon 6:17 AM EDT (6/8) 9:05 PM EDT (6/8)
Length of Visible Light 15h 56m
Length of Day
14h 52m
New Moon, 0% of the Moon is Illuminated
Jun 8
New Moon
Jun 16
First Quarter
Jun 23
Full
Jun 30
Last Quarter
Jul 8
New

Hourly Weather History & Observations

Time (EDT) Temp. Dew Point Humidity Pressure Visibility Wind Dir Wind Speed Gust Speed Precip Events Conditions
12:53 AM 63.0 °F 55.0 °F 75% 29.92 in 6.0 mi ENE 8.1 mph - N/A   Haze
1:53 AM 61.0 °F 54.0 °F 78% 29.91 in 6.0 mi ENE 4.6 mph - N/A   Haze
2:53 AM 59.0 °F 53.1 °F 81% 29.91 in 6.0 mi East 4.6 mph - N/A   Haze
3:53 AM 57.9 °F 54.0 °F 87% 29.92 in 5.0 mi East 3.5 mph - N/A   Mostly Cloudy
4:53 AM 55.9 °F 53.1 °F 90% 29.93 in 4.0 mi Calm Calm - N/A   Scattered Clouds
5:53 AM 57.0 °F 55.0 °F 93% 29.94 in 4.0 mi Calm Calm - N/A   Overcast
6:31 AM 57.2 °F 55.4 °F 94% 29.96 in 2.5 mi Calm Calm - N/A   Overcast
6:50 AM 57.2 °F 55.4 °F 94% 29.96 in 3.0 mi Calm Calm - N/A   Mostly Cloudy
6:53 AM 57.0 °F 55.0 °F 93% 29.96 in 3.0 mi Calm Calm - N/A   Scattered Clouds
7:03 AM 57.2 °F 55.4 °F 94% 29.97 in 2.5 mi Calm Calm - N/A   Partly Cloudy
7:13 AM 57.2 °F 55.4 °F 94% 29.97 in 3.0 mi NE 3.5 mph - N/A   Partly Cloudy
7:53 AM 60.1 °F 55.0 °F 83% 29.97 in 4.0 mi ENE 4.6 mph - N/A   Haze
8:53 AM 63.0 °F 55.0 °F 75% 29.99 in 5.0 mi NE 3.5 mph - N/A   Haze
9:53 AM 64.9 °F 55.9 °F 73% 30.01 in 6.0 mi ESE 3.5 mph - N/A   Haze
10:53 AM 66.9 °F 55.0 °F 66% 30.01 in 8.0 mi Calm Calm - N/A   Clear
11:53 AM 68.0 °F 55.9 °F 65% 30.02 in 10.0 mi Calm Calm - N/A   Scattered Clouds
12:53 PM 69.1 °F 57.0 °F 65% 30.02 in 10.0 mi Calm Calm - N/A   Mostly Cloudy
1:53 PM 66.9 °F 57.9 °F 73% 30.02 in 8.0 mi North 5.8 mph - N/A   Overcast
2:53 PM 72.0 °F 59.0 °F 64% 30.01 in 9.0 mi North 6.9 mph - 0.00 in   Mostly Cloudy
3:53 PM 72.0 °F 57.9 °F 61% 30.01 in 9.0 mi North 8.1 mph - N/A   Mostly Cloudy
4:53 PM 73.0 °F 59.0 °F 61% 29.99 in 9.0 mi NE 9.2 mph - N/A   Mostly Cloudy
5:53 PM 73.0 °F 59.0 °F 61% 29.99 in 10.0 mi NE 6.9 mph - N/A   Mostly Cloudy
6:53 PM 73.0 °F 60.1 °F 64% 29.99 in 10.0 mi NE 8.1 mph - N/A   Mostly Cloudy
7:53 PM 72.0 °F 61.0 °F 68% 30.00 in 10.0 mi NE 4.6 mph - N/A   Mostly Cloudy
8:53 PM 70.0 °F 60.1 °F 71% 30.01 in 9.0 mi NNE 3.5 mph - N/A   Mostly Cloudy
9:53 PM 66.0 °F 61.0 °F 84% 30.03 in 9.0 mi Calm Calm - N/A   Mostly Cloudy
10:53 PM 64.9 °F 59.0 °F 81% 30.04 in 9.0 mi East 3.5 mph - N/A   Clear
11:53 PM 64.9 °F 61.0 °F 87% 30.04 in 9.0 mi Calm Calm - N/A   Overcast